星链-34159 (STARLINK-34159)

导读

STARLINK-34159是美国太空探索技术公司(SpaceX)于2025年5月13日发射的星链(Starlink)低轨通信卫星,属于Starlink V1.0平台。该卫星运行在近地轨道,倾角53.16°,近地点约475公里,是星链全球卫星互联网星座的组成部分,旨在为全球尤其是偏远地区提供高速低延迟宽带互联网服务,助力缩小数字鸿沟。

Basic Information
目录编号:
63952
目录名称:
STARLINK-34159
国际标识:
2025-099A
轨道中心:
EARTH
卫星名称:
星链-34159
卫星全名:
星链-34159 (STARLINK-34159)
卫星状态:
在轨 (已飞行486 天)
发射日期:
2025-05-13 UTC
国别 :
美国 (US)
星等 :
--
This satellite is enrolled in the Space Conjunction Data Service (SCDS) and the current flight risk assessment level is: No High Risk
Orbit Information
数据来源 国际轨道数据 AOE轨道数据
星历时间 2026-09-11T14:15:35+0800
13小时前
查看轨道信息
2026-09-11T04:00:00+0800
23小时前
查看轨道信息
半长轴 6861.152km 6861.163km
偏心率 0.0001218 0.0000349
轨道倾角 43.001° 43.001°
近地点辐角 281.347° 295.120°
升交点赤经 208.510° 210.924°
平近点角 78.725° 231.278°
近地点 482.179km 482.786km
远地点 483.851km 483.266km
周期 94.266分钟 94.266分钟
每日圈数 15.275914 15.275879
Detailed Information
固有亮度:
5
最大亮度:
2.5
卫星平台:
Starlink V1.0
覆盖范围:
全球
运营商:
太空探索技术公司
运营商所在国:
美国
制造商(研发单位):
太空探索技术公司
制造商所在国:
美国
使用方式:
暂无
Satellite Introduction
Starlink 计划是 SpaceX 推出的全球卫星互联网项目,通过发射低轨道卫星,为全球尤其是偏远地区提供高速、低延迟的互联网服务。自 2019 年起,Starlink 已部署数千颗卫星,旨在缩小全球数字鸿沟,推动互联网普及。该项目还为军事、航空等行业提供通信支持,带来广泛经济效益。
2D Orbit Map
3D Orbit Map
Orbit Altitude Analysis Chart
Orbit Inclination Analysis Chart
Orbit Comprehensive Analysis Chart
View Comprehensive Chart
Miss Distance Evolution Trend with All Objects
Collision Probability Evolution Trend with All Objects